FW7127 Weather Reports


time (UTC)temp
F
wind
direction
speed
knots
gust
knots
rain 1hr
in
rain 24hr
in
rain mn
in
humidity
%
barometer
mb
20260504160112 76 192 3.5 12.2 0.00 0.00 0.00 72 1016.9
20260504151039 72 165 6.1 17.4 0.00 0.00 0.00 75 1017.0
20260504150537 72 158 7.0 12.2 0.00 0.00 0.00 75 1017.3
20260504141003 69 184 3.5 7.8 0.00 0.00 0.00 79 1017.4
20260504140459 68 170 3.5 8.7 0.00 0.00 0.00 78 1017.2
20260504130424 64 170 2.6 6.1 0.00 0.00 0.00 81 1017.3
20260504110311 58 157 3.5 5.2 0.00 0.00 0.00 87 1017.0
20260504100229 58 170 4.3 4.3 0.00 0.00 0.00 88 1016.5
20260504081622 60 164 4.3 7.0 0.00 0.00 0.00 86 1017.4
20260504081118 60 174 3.5 7.0 0.00 0.00 0.00 86 1017.5
20260504080615 60 169 4.3 5.2 0.00 0.00 0.00 86 1017.5
20260504080111 60 166 3.5 5.2 0.00 0.00 0.00 86 1017.7
20260504050427 62 169 5.2 8.7 0.00 0.00 0.00 81 1019.6
20260504045924 62 160 6.1 7.8 0.00 0.00 0.00 81 1019.9
20260504045420 62 164 4.3 8.7 0.00 0.00 0.00 81 1019.8
20260504044916 63 166 4.3 7.0 0.00 0.00 0.00 80 1020.3
20260504044414 63 164 3.5 6.1 0.00 0.00 0.00 80 1020.2
20260504043911 63 158 2.6 6.1 0.00 0.00 0.00 80 1020.1
20260504043408 63 171 4.3 6.1 0.00 0.00 0.00 79 1020.1
20260504042906 63 164 4.3 5.2 0.00 0.00 0.00 79 1020.2
20260504042402 63 179 4.3 7.8 0.00 0.00 0.00 78 1020.0
20260504041858 64 161 4.3 7.0 0.00 0.00 0.00 78 1020.0
20260504041354 64 169 4.3 7.0 0.00 0.00 0.00 78 1020.2
20260504040850 64 167 5.2 8.7 0.00 0.00 0.00 77 1020.0
20260504040348 64 163 4.3 6.1 0.00 0.00 0.00 77 1020.1
20260504035844 64 178 3.5 7.8 0.00 0.00 0.00 76 1020.3
20260504035342 64 167 4.3 7.8 0.00 0.00 0.00 75 1020.1
20260504034838 64 168 4.3 7.0 0.00 0.00 0.00 75 1020.4
20260504034336 65 182 3.5 7.0 0.00 0.00 0.00 74 1020.1
20260504033833 65 167 4.3 7.8 0.00 0.00 0.00 74 1020.3
20260504033331 65 165 4.3 8.7 0.00 0.00 0.00 73 1020.2
20260504032827 65 185 5.2 7.0 0.00 0.00 0.00 72 1020.2
20260504032325 66 167 4.3 8.7 0.00 0.00 0.00 72 1020.1
20260504031821 66 177 4.3 9.6 0.00 0.00 0.00 71 1019.8
20260504031319 66 162 7.0 9.6 0.00 0.00 0.00 70 1019.8
20260504030815 66 173 5.2 7.8 0.00 0.00 0.00 70 1019.9
20260504030312 67 178 4.3 8.7 0.00 0.00 0.00 69 1019.9
20260504025808 67 191 6.1 9.6 0.00 0.00 0.00 69 1020.0
20260504025306 67 169 5.2 10.4 0.00 0.00 0.00 69 1019.7
20260504024802 67 163 6.1 9.6 0.00 0.00 0.00 69 1019.9
20260504024258 67 159 3.5 9.6 0.00 0.00 0.00 68 1019.7
20260504023755 68 179 5.2 8.7 0.00 0.00 0.00 68 1019.6
20260504023252 68 166 6.1 9.6 0.00 0.00 0.00 67 1019.5
20260504022748 68 164 4.3 9.6 0.00 0.00 0.00 67 1019.5
20260504022244 68 177 4.3 7.8 0.00 0.00 0.00 67 1019.4
20260504021741 68 168 8.7 11.3 0.00 0.00 0.00 67 1019.4
20260504021238 68 166 6.1 7.8 0.00 0.00 0.00 67 1019.2
20260504020735 68 163 6.1 11.3 0.00 0.00 0.00 67 1019.3
20260504020232 69 160 10.4 10.4 0.00 0.00 0.00 66 1019.4
20260504015728 69 167 6.1 7.8 0.00 0.00 0.00 66 1019.3
20260504015225 69 169 4.3 7.8 0.00 0.00 0.00 65 1019.3
20260504014720 69 191 5.2 8.7 0.00 0.00 0.00 64 1019.3
20260504014217 69 174 6.1 9.6 0.00 0.00 0.00 62 1019.3
20260504013715 69 166 5.2 8.7 0.00 0.00 0.00 61 1019.0
20260504013212 70 157 5.2 7.8 0.00 0.00 0.00 59 1019.0
20260504012709 69 130 9.6 9.6 0.00 0.00 0.00 58 1019.0
20260504012207 70 117 1.7 2.6 0.00 0.00 0.00 57 1019.0
20260504011703 70 138 0.9 2.6 0.00 0.00 0.00 56 1018.7
20260504011200 71 133 1.7 3.5 0.00 0.00 0.00 55 1018.9
20260504010656 71 111 0.9 2.6 0.00 0.00 0.00 55 1018.6
20260504010152 71 137 0.9 1.7 0.00 0.00 0.00 56 1018.6
20260504005649 71 99 0.9 2.6 0.00 0.00 0.00 55 1018.6
20260504005145 71 93 0.0 2.6 0.00 0.00 0.00 55 1018.7
20260504004644 72 147 0.0 1.7 0.00 0.00 0.00 55 1019.1
20260504004140 73 162 1.7 2.6 0.00 0.00 0.00 54 1019.1
20260504003637 74 165 1.7 2.6 0.00 0.00 0.00 53 1019.0
20260504003133 74 185 2.6 4.3 0.00 0.00 0.00 51 1019.1
20260504002630 75 173 2.6 4.3 0.00 0.00 0.00 50 1019.3
20260504002128 76 173 2.6 4.3 0.00 0.00 0.00 50 1019.2
20260504001626 76 165 2.6 5.2 0.00 0.00 0.00 48 1019.4
20260504001121 75 168 1.7 3.5 0.00 0.00 0.00 49 1019.1
20260504000619 75 171 3.5 4.3 0.00 0.00 0.00 49 1019.3
20260504000116 76 166 3.5 7.0 0.00 0.00 0.00 47 1019.4
20260503235614 77 168 4.3 6.1 0.00 0.00 0.00 46 1019.2
20260503235110 76 173 4.3 5.2 0.00 0.00 0.00 45 1019.4
20260503234609 76 172 6.1 8.7 0.00 0.00 0.00 44 1019.5
20260503234106 76 145 5.2 7.8 0.00 0.00 0.00 45 1019.3
20260503233603 75 180 2.6 7.0 0.00 0.00 0.00 44 1019.3
20260503233059 76 171 5.2 7.8 0.00 0.00 0.00 44 1019.3
20260503232556 76 179 4.3 7.8 0.00 0.00 0.00 43 1019.3
20260503232053 77 166 6.1 7.0 0.00 0.00 0.00 43 1019.5
20260503231551 78 192 4.3 6.1 0.00 0.00 0.00 41 1019.4
20260503231048 77 162 6.1 7.0 0.00 0.00 0.00 42 1019.5
20260503230544 78 169 6.1 7.0 0.00 0.00 0.00 40 1019.7
20260503230042 78 169 3.5 8.7 0.00 0.00 0.00 40 1019.5
20260503225538 78 180 4.3 7.0 0.00 0.00 0.00 41 1019.8
20260503225033 78 191 3.5 7.8 0.00 0.00 0.00 41 1019.7
20260503224531 77 175 4.3 12.2 0.00 0.00 0.00 40 1019.6
20260503224028 78 199 8.7 9.6 0.00 0.00 0.00 40 1019.7
20260503223526 78 164 4.3 7.0 0.00 0.00 0.00 41 1019.9
20260503223021 78 179 3.5 9.6 0.00 0.00 0.00 41 1020.0
20260503222520 79 187 5.2 6.1 0.00 0.00 0.00 42 1020.0
20260503222018 78 139 6.1 7.0 0.00 0.00 0.00 39 1020.0
20260503221516 78 174 5.2 7.8 0.00 0.00 0.00 39 1020.3
20260503221013 78 164 6.1 10.4 0.00 0.00 0.00 39 1020.3
20260503220509 78 195 6.1 11.3 0.00 0.00 0.00 38 1020.1
20260503220006 78 148 6.1 11.3 0.00 0.00 0.00 40 1020.3
20260503215503 78 164 5.2 7.0 0.00 0.00 0.00 39 1020.4
20260503215000 78 168 7.0 11.3 0.00 0.00 0.00 39 1020.4
20260503214458 78 176 4.3 11.3 0.00 0.00 0.00 39 1020.6
20260503213955 78 202 6.1 9.6 0.00 0.00 0.00 40 1020.6
20260503213453 78 204 7.8 10.4 0.00 0.00 0.00 42 1020.6
20260503212949 78 180 6.1 8.7 0.00 0.00 0.00 43 1020.7
20260503212447 77 167 4.3 10.4 0.00 0.00 0.00 44 1020.9
20260503211944 78 164 5.2 10.4 0.00 0.00 0.00 45 1021.0
20260503211441 78 214 2.6 7.0 0.00 0.00 0.00 46 1020.8
20260503210937 77 163 8.7 13.0 0.00 0.00 0.00 44 1021.0
20260503210433 78 180 3.5 12.2 0.00 0.00 0.00 44 1021.3
20260503205928 78 207 4.3 12.2 0.00 0.00 0.00 47 1021.1
20260503205425 77 196 7.0 12.2 0.00 0.00 0.00 44 1021.3
20260503204921 78 142 7.0 11.3 0.00 0.00 0.00 43 1021.3
20260503204419 78 163 9.6 11.3 0.00 0.00 0.00 43 1021.2
20260503203916 78 156 7.0 8.7 0.00 0.00 0.00 44 1021.5
20260503203413 78 192 6.1 8.7 0.00 0.00 0.00 44 1021.7
20260503202910 77 175 5.2 10.4 0.00 0.00 0.00 43 1021.8
20260503202408 79 159 7.8 11.3 0.00 0.00 0.00 45 1021.8
20260503201906 78 154 4.3 7.8 0.00 0.00 0.00 43 1021.7
20260503201403 78 170 4.3 9.6 0.00 0.00 0.00 40 1021.9
20260503200901 78 166 6.1 13.0 0.00 0.00 0.00 42 1022.0
20260503200356 78 168 7.0 10.4 0.00 0.00 0.00 42 1021.9
20260503195854 78 162 4.3 9.6 0.00 0.00 0.00 42 1022.0
20260503195350 78 164 2.6 4.3 0.00 0.00 0.00 40 1022.1
20260503194847 78 135 4.3 8.7 0.00 0.00 0.00 45 1022.1
20260503194343 78 134 2.6 5.2 0.00 0.00 0.00 45 1022.1
20260503193840 78 136 4.3 7.8 0.00 0.00 0.00 48 1022.5
20260503193335 78 99 7.8 11.3 0.00 0.00 0.00 42 1022.3
20260503192831 77 103 8.7 9.6 0.00 0.00 0.00 43 1022.4
20260503192327 78 137 4.3 8.7 0.00 0.00 0.00 45 1022.5
20260503191824 78 208 0.9 13.9 0.00 0.00 0.00 43 1022.7
20260503191321 78 155 3.5 7.8 0.00 0.00 0.00 45 1022.7
20260503190817 78 111 10.4 12.2 0.00 0.00 0.00 52 1022.6
20260503190314 78 222 7.8 10.4 0.00 0.00 0.00 48 1022.8
20260503185812 77 98 4.3 12.2 0.00 0.00 0.00 45 1022.9
20260503185307 78 149 9.6 13.9 0.00 0.00 0.00 45 1022.9
20260503184802 77 121 0.9 7.8 0.00 0.00 0.00 43 1022.9
20260503184258 77 197 3.5 9.6 0.00 0.00 0.00 43 1023.2
20260503183754 77 224 0.9 7.0 0.00 0.00 0.00 42 1023.1
20260503183252 77 159 5.2 7.0 0.00 0.00 0.00 43 1023.2
20260503182749 77 180 3.5 8.7 0.00 0.00 0.00 48 1023.2
20260503182248 77 186 4.3 9.6 0.00 0.00 0.00 47 1023.2
20260503181744 77 227 6.1 7.0 0.00 0.00 0.00 46 1023.3
20260503181242 77 182 2.6 7.8 0.00 0.00 0.00 46 1023.5
20260503180738 76 202 2.6 13.9 0.00 0.00 0.00 46 1023.5
20260503180236 76 165 2.6 8.7 0.00 0.00 0.00 45 1023.6
20260503175732 76 207 7.0 8.7 0.00 0.00 0.00 44 1023.7
20260503175231 77 165 3.5 7.8 0.00 0.00 0.00 46 1023.9
20260503174726 76 203 4.3 7.0 0.00 0.00 0.00 46 1023.9
20260503174224 76 109 4.3 6.1 0.00 0.00 0.00 43 1024.0
20260503173719 76 170 3.5 10.4 0.00 0.00 0.00 45 1024.0
20260503173215 77 156 3.5 9.6 0.00 0.00 0.00 45 1024.1
20260503172712 77 156 3.5 6.1 0.00 0.00 0.00 43 1024.2
20260503172209 76 145 4.3 7.8 0.00 0.00 0.00 43 1024.3
20260503171705 76 158 4.3 9.6 0.00 0.00 0.00 43 1024.3
20260503171203 75 171 6.1 9.6 0.00 0.00 0.00 42 1024.4
20260503170700 76 143 3.5 7.8 0.00 0.00 0.00 41 1024.6
20260503170156 77 128 2.6 8.7 0.00 0.00 0.00 47 1024.4